This is the latest recevied weather packets stored in our database for station/object KJ4YLO. If no packets are shown the sender has not sent any weather packets the latest 10 day(s).
| Time | Temp. | Humidity | Pressure | Rain* | Wind** | Luminosity | Snow |
|---|---|---|---|---|---|---|---|
| 1777921746 | 25° C | 30% | 1016.3 hPa | 0 mm | - | 664 W/m² | - |
| 1777921443 | 24.44° C | 30% | 1016.6 hPa | 0 mm | - | 692 W/m² | - |
| 1777921139 | 25.56° C | 28% | 1016.6 hPa | 0 mm | - | 701 W/m² | - |
| 1777920837 | 25° C | 33% | 1016.3 hPa | 0 mm | - | 661 W/m² | - |
| 1777920533 | 25° C | 30% | 1016.6 hPa | 0 mm | - | 735 W/m² | - |
| 1777920228 | 25° C | 30% | 1016.9 hPa | 0 mm | - | 729 W/m² | - |
| 1777919924 | 24.44° C | 30% | 1016.9 hPa | 0 mm | - | 642 W/m² | - |
| 1777919622 | 24.44° C | 29% | 1016.9 hPa | 0 mm | - | 695 W/m² | - |
| 1777919319 | 24.44° C | 30% | 1016.9 hPa | 0 mm | - | 792 W/m² | - |
| 1777919017 | 25° C | 30% | 1016.9 hPa | 0 mm | - | 754 W/m² | - |
| 1777918713 | 24.44° C | 29% | 1016.9 hPa | 0 mm | - | 737 W/m² | - |
| 1777918411 | 24.44° C | 29% | 1016.9 hPa | 0 mm | - | 757 W/m² | - |
| 1777918110 | 23.89° C | 29% | 1017.3 hPa | 0 mm | - | 753 W/m² | - |
| 1777917808 | 24.44° C | 26% | 1017.3 hPa | 0 mm | - | 746 W/m² | - |
| 1777917506 | 24.44° C | 30% | 1017.3 hPa | 0 mm | - | 698 W/m² | - |
| 1777917202 | 23.33° C | 29% | 1017.3 hPa | 0 mm | - | 751 W/m² | - |
| 1777916901 | 23.33° C | 28% | 1017.6 hPa | 0 mm | - | 796 W/m² | - |
| 1777916598 | 23.89° C | 29% | 1017.6 hPa | 0 mm | - | 794 W/m² | - |
| 1777916294 | 23.89° C | 28% | 1017.6 hPa | 0 mm | - | 789 W/m² | - |
| 1777915991 | 23.33° C | 30% | 1017.6 hPa | 0 mm | - | 785 W/m² | - |
| 1777915688 | 23.89° C | 29% | 1017.6 hPa | 0 mm | - | 730 W/m² | - |
| 1777915385 | 23.33° C | 27% | 1017.3 hPa | 0 mm | - | 757 W/m² | - |
| 1777915080 | 23.33° C | 30% | 1018 hPa | 0 mm | - | 787 W/m² | - |
| 1777914778 | 22.78° C | 29% | 1018 hPa | 0 mm | - | 768 W/m² | - |
| 1777914475 | 23.33° C | 31% | 1017.6 hPa | 0 mm | - | 794 W/m² | - |
* Rain latest hour (hover to see other rain measurements)
** Current wind speed in m/s (hover to see current wind gust speed)